ICE431 EGPF-BIKF

Flight info

Callsign ICE431
Flight time N/A
Altitude 24000
Route CLYDE Q602 BRUCE/N0433F380 DCT ATSIX/M076F380 DCT ALDAN DCT ASRUN ASRUN3K
Aircraft B752/M-SDE3FGHIM3RWXY/LB1

Departure

Time 2026-04-30 11:18
Airport Glasgow Airport (EGPF)

Arrival

Time N/A
Airport Keflavik International Airport (BIKF)
Time Latitude Longitude Altitude Speed Heading
2026-04-30 10:33 55.86517 -4.43654 31 ft 0 kts 254°
2026-04-30 11:06 55.86519 -4.43642 32 ft 2 kts 254°
2026-04-30 11:07 55.86523 -4.43617 32 ft 2 kts 254°
2026-04-30 11:07 55.86527 -4.43591 32 ft 2 kts 254°
2026-04-30 11:07 55.86530 -4.43565 33 ft 2 kts 277°
2026-04-30 11:07 55.86526 -4.43539 33 ft 2 kts 297°
2026-04-30 11:08 55.86517 -4.43517 33 ft 2 kts 318°
2026-04-30 11:08 55.86505 -4.43503 33 ft 1 kts 339°
2026-04-30 11:08 55.86498 -4.43499 33 ft 1 kts 347°
2026-04-30 11:08 55.86496 -4.43498 33 ft 0 kts 346°
2026-04-30 11:12 55.86517 -4.43508 33 ft 6 kts 346°
2026-04-30 11:12 55.86561 -4.43528 33 ft 6 kts 346°
2026-04-30 11:12 55.86610 -4.43552 33 ft 7 kts 343°
2026-04-30 11:12 55.86661 -4.43580 33 ft 7 kts 343°
2026-04-30 11:13 55.86713 -4.43610 33 ft 7 kts 331°
2026-04-30 11:13 55.86739 -4.43686 33 ft 7 kts 275°
2026-04-30 11:13 55.86723 -4.43771 32 ft 8 kts 231°
2026-04-30 11:13 55.86676 -4.43857 32 ft 11 kts 226°
2026-04-30 11:14 55.86616 -4.43968 32 ft 12 kts 226°
2026-04-30 11:14 55.86554 -4.44082 33 ft 13 kts 227°
2026-04-30 11:14 55.86490 -4.44203 33 ft 13 kts 227°
2026-04-30 11:14 55.86424 -4.44326 33 ft 13 kts 226°
2026-04-30 11:15 55.86357 -4.44450 33 ft 14 kts 226°
2026-04-30 11:15 55.86289 -4.44577 33 ft 14 kts 226°
2026-04-30 11:15 55.86254 -4.44700 33 ft 10 kts 287°
2026-04-30 11:15 55.86302 -4.44799 33 ft 10 kts 315°
2026-04-30 11:16 55.86351 -4.44867 33 ft 6 kts 348°
2026-04-30 11:16 55.86373 -4.44857 33 ft 3 kts 33°
2026-04-30 11:16 55.86382 -4.44843 33 ft 0 kts 47°
2026-04-30 11:17 55.86382 -4.44842 33 ft 0 kts 47°
2026-04-30 11:17 55.86382 -4.44843 33 ft 0 kts 47°
2026-04-30 11:17 55.86404 -4.44799 33 ft 24 kts 47°
2026-04-30 11:17 55.86711 -4.44219 32 ft 102 kts 49°
2026-04-30 11:18 55.87362 -4.43012 67 ft 165 kts 49°
2026-04-30 11:18 55.89073 -4.39863 1756 ft 179 kts 49°
2026-04-30 11:18 55.89945 -4.38294 2510 ft 189 kts 50°
2026-04-30 11:19 55.90894 -4.36591 3265 ft 199 kts 51°
2026-04-30 11:19 55.91828 -4.34805 4071 ft 206 kts 55°
2026-04-30 11:19 55.92904 -4.32890 4536 ft 237 kts 36°
2026-04-30 11:19 55.94561 -4.31961 5120 ft 269 kts
2026-04-30 11:20 55.96457 -4.32627 5702 ft 294 kts 334°
2026-04-30 11:20 55.98135 -4.34887 6172 ft 315 kts 305°
2026-04-30 11:20 55.99006 -4.38240 7526 ft 294 kts 276°
2026-04-30 11:20 55.98983 -4.41744 8542 ft 284 kts 249°
2026-04-30 11:21 55.98105 -4.44756 9458 ft 275 kts 226°
2026-04-30 11:21 55.96982 -4.47489 10376 ft 283 kts 236°
2026-04-30 11:21 55.96395 -4.50882 11207 ft 302 kts 262°
2026-04-30 11:21 55.96454 -4.54753 11759 ft 323 kts 268°
2026-04-30 11:22 55.96508 -4.58869 12208 ft 341 kts 265°
2026-04-30 11:22 55.96507 -4.63096 12988 ft 347 kts 265°
2026-04-30 11:22 55.96480 -4.67402 13899 ft 349 kts 263°
2026-04-30 11:22 55.96435 -4.71704 14789 ft 351 kts 263°
2026-04-30 11:23 55.96396 -4.76027 15637 ft 356 kts 266°
2026-04-30 11:23 55.96802 -4.80441 16380 ft 370 kts 284°
2026-04-30 11:23 55.98931 -4.88868 18017 ft 379 kts 291°
2026-04-30 11:24 56.00049 -4.93119 18729 ft 385 kts 291°
2026-04-30 11:24 56.01205 -4.97513 19138 ft 399 kts 291°
2026-04-30 11:24 56.02375 -5.01948 19911 ft 402 kts 291°
2026-04-30 11:25 56.04784 -5.11107 21337 ft 411 kts 291°
2026-04-30 11:25 56.05997 -5.15734 21979 ft 416 kts 291°
2026-04-30 11:25 56.08457 -5.25143 23252 ft 425 kts 291°
2026-04-30 11:26 56.10970 -5.34793 24274 ft 435 kts 291°
2026-04-30 11:26 56.12264 -5.39781 24250 ft 437 kts 291°
2026-04-30 11:26 56.13531 -5.44662 24243 ft 429 kts 290°
2026-04-30 11:27 56.14782 -5.49503 24254 ft 429 kts 290°
2026-04-30 11:27 56.16035 -5.54368 24249 ft 432 kts 291°
2026-04-30 11:27 56.17285 -5.59225 24247 ft 431 kts 290°
2026-04-30 11:27 56.18531 -5.64077 24245 ft 431 kts 290°
2026-04-30 11:28 56.21012 -5.73774 24244 ft 429 kts 289°
2026-04-30 11:28 56.22414 -5.78486 24244 ft 436 kts 299°
2026-04-30 11:28 56.24313 -5.82848 24433 ft 447 kts 310°
2026-04-30 11:29 56.26628 -5.86521 25188 ft 450 kts 321°
2026-04-30 11:29 56.29270 -5.89530 25745 ft 457 kts 329°
2026-04-30 11:29 56.34842 -5.95060 26909 ft 462 kts 329°
2026-04-30 11:30 56.40503 -6.00664 27952 ft 469 kts 329°
2026-04-30 11:30 56.43370 -6.03502 28476 ft 472 kts 329°
2026-04-30 11:30 56.46249 -6.06355 28961 ft 475 kts 329°
2026-04-30 11:31 56.49117 -6.09202 29472 ft 478 kts 329°
2026-04-30 11:31 56.52026 -6.12093 29922 ft 481 kts 329°
2026-04-30 11:31 56.54945 -6.15000 30419 ft 483 kts 329°
2026-04-30 11:31 56.57879 -6.17926 30817 ft 486 kts 329°
2026-04-30 11:32 56.60856 -6.20899 31368 ft 486 kts 329°
2026-04-30 11:32 56.63793 -6.23837 31945 ft 485 kts 329°
2026-04-30 11:32 56.66723 -6.26775 32542 ft 483 kts 329°
2026-04-30 11:33 56.72545 -6.32627 33574 ft 480 kts 329°
2026-04-30 11:33 56.75441 -6.35545 34102 ft 479 kts 329°
2026-04-30 11:33 56.78354 -6.38488 34536 ft 478 kts 329°
2026-04-30 11:33 56.81249 -6.41416 35000 ft 477 kts 329°
2026-04-30 11:34 56.84119 -6.44325 35439 ft 474 kts 329°
2026-04-30 11:34 56.87002 -6.47251 35781 ft 473 kts 328°
2026-04-30 11:34 56.89855 -6.50154 36123 ft 472 kts 328°
2026-04-30 11:34 56.92724 -6.53076 36469 ft 471 kts 328°
2026-04-30 11:35 56.95559 -6.55969 36783 ft 470 kts 328°
2026-04-30 11:35 56.98389 -6.58863 37165 ft 468 kts 328°
2026-04-30 11:35 57.01221 -6.61763 37547 ft 468 kts 328°
2026-04-30 11:35 57.04058 -6.64673 37946 ft 466 kts 328°
2026-04-30 11:36 57.06839 -6.67532 38229 ft 463 kts 327°
2026-04-30 11:36 57.09654 -6.70430 38232 ft 461 kts 327°
2026-04-30 11:36 57.15244 -6.76202 38229 ft 464 kts 327°
2026-04-30 11:37 57.20844 -6.82003 38230 ft 463 kts 327°
2026-04-30 11:37 57.26397 -6.87775 38232 ft 463 kts 327°
2026-04-30 11:38 57.31977 -6.93597 38234 ft 463 kts 327°
2026-04-30 11:38 57.37568 -6.99449 38235 ft 462 kts 327°
2026-04-30 11:39 57.43151 -7.05315 38236 ft 463 kts 327°
2026-04-30 11:39 57.48725 -7.11191 38233 ft 462 kts 327°
2026-04-30 11:40 57.54277 -7.17066 38234 ft 462 kts 327°
2026-04-30 11:40 57.59845 -7.22978 38232 ft 461 kts 327°
2026-04-30 11:41 57.65375 -7.28869 38230 ft 462 kts 327°
2026-04-30 11:41 57.70949 -7.34830 38224 ft 463 kts 327°
2026-04-30 11:42 57.76496 -7.40784 38217 ft 462 kts 327°
2026-04-30 11:42 57.82038 -7.46753 38219 ft 463 kts 327°
2026-04-30 11:43 57.87580 -7.52743 38219 ft 461 kts 327°
2026-04-30 11:43 57.93110 -7.58742 38217 ft 461 kts 327°
2026-04-30 11:44 57.98646 -7.64768 38215 ft 461 kts 326°
2026-04-30 11:44 58.04178 -7.70812 38215 ft 460 kts 326°